W0WC Weather Reports


Display with metric or nautical units.
time (UTC)temp
F
wind
direction
speed
MPH
gust
MPH
rain 1hr
in
rain 24hr
in
rain mn
in
humidity
%
barometer
mb
20260831082158 82 99 4.0 6.0 0.00 0.00 0.00 47 1015.6
20260831081653 82 201 2.0 3.0 0.00 0.00 0.00 47 1015.8
20260831081149 82 135 4.0 8.0 0.00 0.00 0.00 47 1015.6
20260831080644 83 153 4.0 6.0 0.00 0.00 0.00 47 1015.5
20260831080139 83 134 3.0 4.0 0.00 0.00 0.00 47 1015.5
20260831075635 83 96 2.0 3.0 0.00 0.00 0.00 47 1015.6
20260831075130 83 261 3.0 4.0 0.00 0.00 0.00 47 1015.5
20260831074629 83 164 3.0 3.0 0.00 0.00 0.00 48 1015.5
20260831074124 83 283 2.0 2.0 0.00 0.00 0.00 48 1015.4
20260831073624 83 165 8.0 9.0 0.00 0.00 0.00 48 1015.5
20260831073124 82 147 5.0 6.0 0.00 0.00 0.00 48 1015.5
20260831072620 82 238 3.0 3.0 0.00 0.00 0.00 49 1015.5
20260831072116 83 125 2.0 3.0 0.00 0.00 0.00 49 1015.4
20260831071614 83 168 5.0 8.0 0.00 0.00 0.00 49 1015.4
20260831071110 83 156 6.0 7.0 0.00 0.00 0.00 48 1015.4
20260831070609 83 147 8.0 10.0 0.00 0.00 0.00 48 1015.3
20260831070104 83 166 4.0 7.0 0.00 0.00 0.00 48 1015.4
20260831065602 83 90 2.0 3.0 0.00 0.00 0.00 49 1015.6
20260831065056 83 207 2.0 4.0 0.00 0.00 0.00 49 1015.6
20260831064551 83 130 4.0 6.0 0.00 0.00 0.00 49 1015.6
20260831064047 83 172 5.0 6.0 0.00 0.00 0.00 49 1015.5
20260831063542 83 135 3.0 6.0 0.00 0.00 0.00 49 1015.4
20260831063037 83 107 6.0 7.0 0.00 0.00 0.00 49 1015.4
20260831062532 83 177 6.0 8.0 0.00 0.00 0.00 50 1015.4
20260831062031 83 135 7.0 10.0 0.00 0.00 0.00 50 1015.4
20260831061524 83 183 5.0 7.0 0.00 0.00 0.00 50 1015.5
20260831061020 83 126 2.0 2.0 0.00 0.00 0.00 50 1015.5
20260831060520 83 153 6.0 7.0 0.00 0.00 0.00 50 1015.4
20260831060016 83 131 2.0 3.0 0.00 0.00 0.00 50 1015.6
20260831055509 83 108 2.0 3.0 0.00 0.00 0.00 50 1015.7
20260831055005 83 136 4.0 6.0 0.00 0.00 0.00 50 1015.5
20260831054459 83 107 5.0 9.0 0.00 0.00 0.00 50 1015.7
20260831053958 84 104 4.0 4.0 0.00 0.00 0.00 50 1015.6
20260831053456 84 145 5.0 6.0 0.00 0.00 0.00 50 1015.6
20260831052952 84 178 2.0 3.0 0.00 0.00 0.00 49 1015.6
20260831052451 84 68 4.0 6.0 0.00 0.00 0.00 49 1015.7
20260831051949 84 199 4.0 6.0 0.00 0.00 0.00 49 1015.6
20260831051448 84 122 4.0 7.0 0.00 0.00 0.00 48 1015.5
20260831050943 84 124 3.0 4.0 0.00 0.00 0.00 48 1015.6
20260831050443 84 75 2.0 3.0 0.00 0.00 0.00 48 1015.4
20260831045941 84 198 6.0 8.0 0.00 0.00 0.00 48 1015.4
20260831045441 85 166 6.0 8.0 0.00 0.00 0.00 47 1015.5
20260831044936 85 146 4.0 4.0 0.00 0.00 0.00 47 1015.6
20260831044431 85 58 4.0 7.0 0.00 0.00 0.00 46 1015.2
20260831043927 85 103 3.0 3.0 0.00 0.00 0.00 46 1015.3
20260831043426 86 204 4.0 4.0 0.00 0.00 0.00 45 1015.3
20260831042922 86 166 4.0 4.0 0.00 0.00 0.00 45 1015.3
20260831042421 86 138 5.0 7.0 0.00 0.00 0.00 44 1015.3
20260831041916 86 105 4.0 6.0 0.00 0.00 0.00 44 1015.2
20260831041416 86 144 2.0 3.0 0.00 0.00 0.00 43 1015.3
20260831040912 86 201 6.0 7.0 0.00 0.00 0.00 43 1015.2
20260831040412 87 50 2.0 3.0 0.00 0.00 0.00 42 1015.2
20260831035909 87 138 3.0 3.0 0.00 0.00 0.00 42 1015.1
20260831035409 87 116 6.0 7.0 0.00 0.00 0.00 42 1015.2
20260831034908 87 37 1.0 2.0 0.00 0.00 0.00 42 1015.1
20260831034404 87 63 1.0 1.0 0.00 0.00 0.00 42 1015.1
20260831033859 87 136 3.0 4.0 0.00 0.00 0.00 42 1015.0
20260831033354 87 19 0.0 0.0 0.00 0.00 0.00 42 1014.7
20260831032850 87 36 1.0 1.0 0.00 0.00 0.00 42 1015.0
20260831032349 87 187 2.0 4.0 0.00 0.00 0.00 42 1014.9
20260831031845 88 54 2.0 3.0 0.00 0.00 0.00 42 1014.6
20260831031344 88 28 1.0 1.0 0.00 0.00 0.00 41 1014.8
20260831030839 88 146 2.0 2.0 0.00 0.00 0.00 41 1014.7
20260831030338 89 22 0.0 1.0 0.00 0.00 0.00 41 1014.9
20260831025837 89 91 2.0 2.0 0.00 0.00 0.00 40 1014.7
20260831025332 89 188 2.0 3.0 0.00 0.00 0.00 40 1014.7
20260831024827 89 32 1.0 1.0 0.00 0.00 0.00 40 1014.7
20260831024326 89 44 1.0 2.0 0.00 0.00 0.00 40 1014.6
20260831023825 89 28 1.0 2.0 0.00 0.00 0.00 40 1014.5
20260831023324 89 46 1.0 2.0 0.00 0.00 0.00 40 1014.4
20260831022820 90 47 1.0 1.0 0.00 0.00 0.00 40 1014.1
20260831022319 90 38 1.0 1.0 0.00 0.00 0.00 40 1014.4
20260831021814 90 127 2.0 4.0 0.00 0.00 0.00 39 1014.4
20260831021313 90 120 2.0 3.0 0.00 0.00 0.00 39 1014.2
20260831020809 90 81 1.0 2.0 0.00 0.00 0.00 39 1014.1
20260831020308 90 31 2.0 3.0 0.00 0.00 0.00 39 1014.2
20260831015804 91 345 0.0 1.0 0.00 0.00 0.00 39 1014.1
20260831015300 91 64 1.0 1.0 0.00 0.00 0.00 39 1014.0
20260831014759 91 198 4.0 6.0 0.00 0.00 0.00 39 1013.9
20260831014254 91 45 1.0 1.0 0.00 0.00 0.00 39 1013.9
20260831013751 91 15 0.0 0.0 0.00 0.00 0.00 39 1013.8
20260831013250 91 12 0.0 1.0 0.00 0.00 0.00 39 1013.7
20260831012745 92 19 0.0 0.0 0.00 0.00 0.00 38 1013.9
20260831012240 92 38 1.0 1.0 0.00 0.00 0.00 37 1013.9
20260831011739 93 327 1.0 1.0 0.00 0.00 0.00 37 1013.7
20260831011235 93 42 1.0 1.0 0.00 0.00 0.00 37 1014.0
20260831010731 93 46 2.0 2.0 0.00 0.00 0.00 36 1013.6
20260831010231 94 148 3.0 4.0 0.00 0.00 0.00 36 1013.9
20260831005726 94 46 2.0 3.0 0.00 0.00 0.00 35 1013.8
20260831005221 95 188 2.0 4.0 0.00 0.00 0.00 35 1013.7
20260831004717 95 308 1.0 2.0 0.00 0.00 0.00 34 1013.8
20260831004213 95 170 2.0 2.0 0.00 0.00 0.00 34 1013.9
20260831003708 96 66 1.0 2.0 0.00 0.00 0.00 34 1013.8
20260831003205 96 76 3.0 4.0 0.00 0.00 0.00 33 1013.8
20260831002703 96 214 4.0 7.0 0.00 0.00 0.00 33 1013.7
20260831002158 97 94 4.0 6.0 0.00 0.00 0.00 32 1013.8
20260831001654 97 125 4.0 6.0 0.00 0.00 0.00 32 1013.7
20260831001149 97 74 3.0 3.0 0.00 0.00 0.00 32 1013.7
20260831000646 97 161 5.0 7.0 0.00 0.00 0.00 32 1013.6
20260831000146 98 107 6.0 7.0 0.00 0.00 0.00 31 1013.8
20260830235644 98 157 5.0 6.0 0.00 0.00 0.00 31 1013.9
20260830235140 98 156 3.0 3.0 0.00 0.00 0.00 31 1013.6
20260830234635 98 133 4.0 4.0 0.00 0.00 0.00 31 1013.7
20260830234130 99 167 5.0 7.0 0.00 0.00 0.00 30 1013.8
20260830233626 99 184 7.0 10.0 0.00 0.00 0.00 31 1013.7
20260830233121 99 142 4.0 6.0 0.00 0.00 0.00 30 1013.7
20260830232617 100 186 5.0 6.0 0.00 0.00 0.00 30 1013.7
20260830232113 100 223 6.0 9.0 0.00 0.00 0.00 29 1013.8
20260830231608 100 169 4.0 4.0 0.00 0.00 0.00 29 1013.7
20260830231108 100 156 9.0 11.0 0.00 0.00 0.00 29 1013.8
20260830230603 100 151 4.0 6.0 0.00 0.00 0.00 28 1013.7
20260830230058 101 196 4.0 4.0 0.00 0.00 0.00 29 1014.0
20260830225553 100 125 2.0 3.0 0.00 0.00 0.00 30 1013.7
20260830225053 100 227 9.0 13.0 0.00 0.00 0.00 30 1013.6
20260830224551 100 180 5.0 8.0 0.00 0.00 0.00 30 1013.6
20260830224049 99 200 3.0 3.0 0.00 0.00 0.00 31 1013.6
20260830223546 99 213 6.0 8.0 0.00 0.00 0.00 31 1013.7
20260830223045 100 169 4.0 7.0 0.00 0.00 0.00 30 1013.8
20260830222539 100 137 4.0 7.0 0.00 0.00 0.00 30 1013.7
20260830222036 101 90 5.0 9.0 0.00 0.00 0.00 29 1013.9
20260830221531 101 177 7.0 9.0 0.00 0.00 0.00 29 1013.7
20260830221027 101 134 3.0 3.0 0.00 0.00 0.00 30 1013.7
20260830220527 101 222 5.0 7.0 0.00 0.00 0.00 30 1013.8
20260830220025 101 192 6.0 8.0 0.00 0.00 0.00 30 1013.9
20260830215520 101 162 4.0 4.0 0.00 0.00 0.00 30 1013.9
20260830215014 101 296 2.0 2.0 0.00 0.00 0.00 30 1013.8
20260830214509 101 229 8.0 14.0 0.00 0.00 0.00 29 1014.0
20260830214004 101 153 2.0 4.0 0.00 0.00 0.00 30 1013.9
20260830213458 101 28 1.0 1.0 0.00 0.00 0.00 30 1014.0
20260830212954 102 195 2.0 3.0 0.00 0.00 0.00 29 1014.0
20260830212449 102 215 4.0 6.0 0.00 0.00 0.00 29 1013.9
20260830211949 102 189 4.0 4.0 0.00 0.00 0.00 29 1014.4
20260830211444 100 204 7.0 8.0 0.00 0.00 0.00 29 1013.9
20260830210939 101 164 9.0 10.0 0.00 0.00 0.00 28 1014.4
20260830210439 101 218 8.0 9.0 0.00 0.00 0.00 29 1014.2
20260830205937 102 135 6.0 9.0 0.00 0.00 0.00 27 1014.4
20260830205436 101 96 4.0 4.0 0.00 0.00 0.00 28 1014.6
20260830204931 102 204 8.0 9.0 0.00 0.00 0.00 27 1014.4
20260830204431 101 172 6.0 9.0 0.00 0.00 0.00 28 1014.5
20260830203925 101 166 3.0 3.0 0.00 0.00 0.00 29 1014.6
20260830203422 100 159 8.0 14.0 0.00 0.00 0.00 30 1014.6
20260830202921 100 219 6.0 7.0 0.00 0.00 0.00 29 1014.6
20260830202417 100 251 6.0 7.0 0.00 0.00 0.00 29 1014.8
20260830201913 101 189 9.0 10.0 0.00 0.00 0.00 29 1014.8
20260830201412 101 144 5.0 6.0 0.00 0.00 0.00 30 1014.9
20260830200908 101 199 6.0 10.0 0.00 0.00 0.00 31 1014.9
20260830200408 101 231 3.0 4.0 0.00 0.00 0.00 31 1014.9
20260830195903 100 68 7.0 10.0 0.00 0.00 0.00 32 1014.9
20260830195402 100 216 2.0 3.0 0.00 0.00 0.00 32 1015.1
20260830194901 102 210 3.0 6.0 0.00 0.00 0.00 30 1015.1
20260830194400 101 340 1.0 1.0 0.00 0.00 0.00 32 1015.1
20260830193855 101 116 4.0 6.0 0.00 0.00 0.00 32 1015.2
20260830193354 100 210 3.0 4.0 0.00 0.00 0.00 32 1015.1
20260830192850 101 194 2.0 4.0 0.00 0.00 0.00 32 1015.3
20260830192350 99 234 3.0 4.0 0.00 0.00 0.00 32 1015.1
20260830191846 100 167 6.0 7.0 0.00 0.00 0.00 33 1015.3
20260830191345 99 269 3.0 4.0 0.00 0.00 0.00 33 1015.4
20260830190841 100 255 4.0 7.0 0.00 0.00 0.00 32 1015.2
20260830190336 98 215 4.0 6.0 0.00 0.00 0.00 34 1015.5
20260830185834 98 243 4.0 7.0 0.00 0.00 0.00 34 1015.4
20260830185330 99 160 9.0 13.0 0.00 0.00 0.00 34 1015.5
20260830184825 99 262 4.0 6.0 0.00 0.00 0.00 34 1015.6
20260830184324 98 231 2.0 2.0 0.00 0.00 0.00 35 1015.6
20260830183813 97 0 2.0 3.0 0.00 0.00 0.00 36 1015.7
20260830183313 98 213 5.0 8.0 0.00 0.00 0.00 35 1015.8
20260830182808 97 215 8.0 13.0 0.00 0.00 0.00 35 1016.0
20260830182306 97 49 3.0 6.0 0.00 0.00 0.00 36 1015.9
20260830181800 98 241 7.0 11.0 0.00 0.00 0.00 35 1016.1
20260830181255 98 237 6.0 8.0 0.00 0.00 0.00 35 1016.0
20260830180754 97 286 4.0 4.0 0.00 0.00 0.00 35 1015.8
20260830180250 96 216 4.0 7.0 0.00 0.00 0.00 35 1016.1
20260830175743 97 9 6.0 8.0 0.00 0.00 0.00 36 1016.4
20260830175238 96 5 3.0 3.0 0.00 0.00 0.00 36 1016.0
20260830174733 96 193 4.0 6.0 0.00 0.00 0.00 36 1016.4
20260830174229 96 256 6.0 7.0 0.00 0.00 0.00 36 1016.4
20260830173728 96 213 8.0 13.0 0.00 0.00 0.00 35 1016.5
20260830173224 95 280 6.0 10.0 0.00 0.00 0.00 36 1016.4
20260830172720 96 182 11.0 17.0 0.00 0.00 0.00 36 1016.6
20260830172217 96 348 4.0 6.0 0.00 0.00 0.00 36 1016.6
20260830171712 95 356 6.0 8.0 0.00 0.00 0.00 36 1016.7
20260830171207 94 226 6.0 8.0 0.00 0.00 0.00 36 1016.9
20260830170702 95 144 6.0 8.0 0.00 0.00 0.00 37 1016.9
20260830170201 95 143 9.0 13.0 0.00 0.00 0.00 36 1017.0
20260830165700 95 210 4.0 6.0 0.00 0.00 0.00 36 1016.9
20260830165157 95 174 7.0 9.0 0.00 0.00 0.00 36 1017.1
20260830164653 94 204 5.0 7.0 0.00 0.00 0.00 37 1017.0
20260830164149 93 241 4.0 6.0 0.00 0.00 0.00 38 1017.3
20260830163645 93 213 12.0 19.0 0.00 0.00 0.00 37 1017.1
20260830163145 93 200 7.0 8.0 0.00 0.00 0.00 37 1017.3
20260830162640 92 199 7.0 11.0 0.00 0.00 0.00 38 1017.1
20260830162136 92 178 11.0 17.0 0.00 0.00 0.00 38 1016.9
20260830161631 92 205 8.0 9.0 0.00 0.00 0.00 38 1017.1
20260830161125 91 253 6.0 8.0 0.00 0.00 0.00 39 1017.0
20260830160621 92 189 10.0 13.0 0.00 0.00 0.00 38 1017.1
20260830160116 91 199 3.0 4.0 0.00 0.00 0.00 39 1016.9
20260830155612 90 333 5.0 7.0 0.00 0.00 0.00 40 1016.9
20260830155108 90 226 7.0 9.0 0.00 0.00 0.00 40 1017.0
20260830154603 89 117 5.0 7.0 0.00 0.00 0.00 41 1017.2
20260830154059 90 223 7.0 9.0 0.00 0.00 0.00 40 1017.0
20260830153555 90 193 9.0 11.0 0.00 0.00 0.00 41 1017.0
20260830153054 89 224 5.0 11.0 0.00 0.00 0.00 42 1017.1
20260830152549 88 210 11.0 14.0 0.00 0.00 0.00 42 1017.2
20260830152048 88 198 4.0 8.0 0.00 0.00 0.00 43 1017.2
20260830151549 87 189 5.0 10.0 0.00 0.00 0.00 43 1017.3
20260830151044 87 232 6.0 7.0 0.00 0.00 0.00 43 1017.1
20260830150543 87 231 5.0 8.0 0.00 0.00 0.00 43 1017.1
20260830150037 86 208 7.0 10.0 0.00 0.00 0.00 44 1017.3
20260830145532 86 146 8.0 13.0 0.00 0.00 0.00 44 1017.1
20260830145027 86 192 5.0 7.0 0.00 0.00 0.00 44 1017.1
20260830144523 86 175 5.0 6.0 0.00 0.00 0.00 44 1017.3
20260830144019 85 190 8.0 10.0 0.00 0.00 0.00 45 1017.1
20260830143514 84 150 5.0 7.0 0.00 0.00 0.00 46 1017.1
20260830143012 84 189 11.0 15.0 0.00 0.00 0.00 46 1017.1
20260830142508 84 178 7.0 8.0 0.00 0.00 0.00 46 1017.1
20260830142003 83 207 7.0 14.0 0.00 0.00 0.00 47 1017.0
20260830141458 83 182 12.0 15.0 0.00 0.00 0.00 47 1017.1
20260830140953 82 251 8.0 9.0 0.00 0.00 0.00 48 1017.2
20260830140452 82 169 10.0 14.0 0.00 0.00 0.00 48 1017.2
20260830135951 82 190 6.0 8.0 0.00 0.00 0.00 49 1017.3
20260830135447 82 167 9.0 10.0 0.00 0.00 0.00 49 1017.2
20260830134942 81 195 6.0 7.0 0.00 0.00 0.00 49 1017.3
20260830134438 81 192 6.0 8.0 0.00 0.00 0.00 50 1017.1
20260830133933 81 82 3.0 4.0 0.00 0.00 0.00 50 1017.1
20260830133429 80 186 3.0 4.0 0.00 0.00 0.00 51 1017.1
20260830132924 80 123 4.0 4.0 0.00 0.00 0.00 51 1017.1
20260830132421 80 214 4.0 6.0 0.00 0.00 0.00 52 1017.1
20260830131920 79 167 4.0 6.0 0.00 0.00 0.00 52 1017.1
20260830131414 78 187 5.0 7.0 0.00 0.00 0.00 53 1017.1
20260830130914 78 181 4.0 6.0 0.00 0.00 0.00 53 1017.0
20260830130410 78 170 5.0 7.0 0.00 0.00 0.00 53 1016.8
20260830125908 78 200 5.0 7.0 0.00 0.00 0.00 53 1016.9
20260830125404 78 195 4.0 6.0 0.00 0.00 0.00 54 1017.1
20260830124902 77 152 5.0 6.0 0.00 0.00 0.00 54 1017.0
20260830124357 77 101 4.0 6.0 0.00 0.00 0.00 54 1016.9
20260830123853 77 199 5.0 7.0 0.00 0.00 0.00 54 1016.9
20260830123350 77 169 6.0 8.0 0.00 0.00 0.00 54 1016.8
20260830122847 77 274 2.0 3.0 0.00 0.00 0.00 55 1016.9
20260830122342 77 123 3.0 3.0 0.00 0.00 0.00 55 1016.8
20260830121837 77 142 3.0 3.0 0.00 0.00 0.00 55 1016.8
20260830121337 77 184 2.0 2.0 0.00 0.00 0.00 55 1016.8
20260830120832 77 124 6.0 7.0 0.00 0.00 0.00 55 1016.9
20260830120327 77 200 4.0 6.0 0.00 0.00 0.00 54 1016.9
20260830115825 77 352 2.0 3.0 0.00 0.00 0.00 54 1016.8
20260830115321 77 240 2.0 3.0 0.00 0.00 0.00 54 1016.9
20260830114816 77 105 2.0 2.0 0.00 0.00 0.00 54 1016.7
20260830114312 77 189 4.0 6.0 0.00 0.00 0.00 54 1016.7
20260830113806 77 155 3.0 3.0 0.00 0.00 0.00 54 1016.7
20260830113301 77 221 6.0 8.0 0.00 0.00 0.00 53 1016.7
20260830112757 77 46 1.0 1.0 0.00 0.00 0.00 53 1016.7
20260830112253 77 61 1.0 2.0 0.00 0.00 0.00 53 1016.7
20260830111749 78 161 4.0 4.0 0.00 0.00 0.00 52 1016.6
20260830111245 78 303 2.0 2.0 0.00 0.00 0.00 52 1016.6
20260830110744 78 359 1.0 1.0 0.00 0.00 0.00 52 1016.4
20260830110241 78 119 4.0 4.0 0.00 0.00 0.00 52 1016.7
20260830105740 78 236 5.0 6.0 0.00 0.00 0.00 52 1016.6
20260830105236 78 185 2.0 3.0 0.00 0.00 0.00 52 1016.5
20260830104732 78 137 3.0 4.0 0.00 0.00 0.00 52 1016.4
20260830104229 78 71 3.0 4.0 0.00 0.00 0.00 52 1016.5
20260830103728 78 135 5.0 7.0 0.00 0.00 0.00 52 1016.3
20260830103223 78 204 4.0 6.0 0.00 0.00 0.00 52 1016.3
20260830102721 78 128 4.0 6.0 0.00 0.00 0.00 51 1016.4
20260830102217 78 193 3.0 4.0 0.00 0.00 0.00 51 1016.4
20260830101714 78 127 4.0 4.0 0.00 0.00 0.00 51 1016.3
20260830101208 78 90 2.0 3.0 0.00 0.00 0.00 51 1016.3
20260830100703 78 92 3.0 3.0 0.00 0.00 0.00 51 1016.1
20260830100202 78 155 6.0 7.0 0.00 0.00 0.00 51 1016.3
20260830095701 78 148 3.0 4.0 0.00 0.00 0.00 51 1016.2
20260830095157 78 171 3.0 3.0 0.00 0.00 0.00 52 1016.3
20260830094653 78 135 3.0 4.0 0.00 0.00 0.00 52 1016.1
20260830094149 78 162 3.0 4.0 0.00 0.00 0.00 52 1016.3
20260830093644 78 192 2.0 2.0 0.00 0.00 0.00 52 1016.0
20260830093141 78 85 3.0 4.0 0.00 0.00 0.00 52 1016.0
20260830092634 78 173 4.0 4.0 0.00 0.00 0.00 52 1016.2
20260830092133 78 179 3.0 4.0 0.00 0.00 0.00 52 1015.9
20260830091632 78 218 4.0 4.0 0.00 0.00 0.00 51 1016.1
20260830091131 79 156 6.0 8.0 0.00 0.00 0.00 51 1016.1
20260830090627 79 134 6.0 8.0 0.00 0.00 0.00 51 1016.1
20260830090122 79 134 7.0 10.0 0.00 0.00 0.00 51 1016.0
20260830085621 79 47 4.0 7.0 0.00 0.00 0.00 51 1015.9
20260830085118 79 62 4.0 6.0 0.00 0.00 0.00 51 1016.0
20260830084613 79 102 4.0 6.0 0.00 0.00 0.00 51 1016.0
20260830084112 79 165 5.0 8.0 0.00 0.00 0.00 50 1016.0
20260830083609 79 135 4.0 8.0 0.00 0.00 0.00 50 1016.0
20260830083109 80 99 3.0 3.0 0.00 0.00 0.00 50 1015.9
20260830082608 80 161 5.0 8.0 0.00 0.00 0.00 50 1016.0